| time (UTC) | temp F | wind direction | speed knots | gust knots | rain 1hr in | rain 24hr in | rain mn in | humidity % | barometer mb |
| 20260504000219 | 57 | 265 | 0.0 | 0.0 | 0.00 | 0.00 | 0.00 | 78 | 1013.4 |
| 20260503235718 | 57 | 265 | 0.0 | 0.0 | 0.00 | 0.00 | 0.00 | 77 | 1013.4 |
| 20260503235237 | 58 | 265 | 0.0 | 0.0 | 0.00 | 0.00 | 0.00 | 77 | 1013.4 |
| 20260503234732 | 58 | 265 | 0.0 | 0.0 | 0.00 | 0.00 | 0.00 | 77 | 1013.4 |
| 20260503234217 | 58 | 265 | 0.0 | 0.0 | 0.00 | 0.00 | 0.00 | 77 | 1013.4 |
| 20260503233730 | 58 | 266 | 0.0 | 0.0 | 0.00 | 0.00 | 0.00 | 77 | 1013.4 |
| 20260503233218 | 58 | 266 | 0.0 | 0.0 | 0.00 | 0.00 | 0.00 | 77 | 1013.4 |
| 20260503232724 | 58 | 266 | 0.0 | 0.0 | 0.00 | 0.00 | 0.00 | 76 | 1013.5 |
| 20260503232218 | 58 | 266 | 0.0 | 0.0 | 0.00 | 0.00 | 0.00 | 76 | 1013.4 |
| 20260503231739 | 58 | 266 | 0.0 | 0.0 | 0.00 | 0.00 | 0.00 | 77 | 1013.4 |
| 20260503231242 | 58 | 266 | 0.0 | 0.0 | 0.00 | 0.00 | 0.00 | 76 | 1013.4 |
| 20260503230723 | 58 | 266 | 0.0 | 0.0 | 0.00 | 0.00 | 0.00 | 76 | 1013.5 |
| 20260503230250 | 58 | 266 | 0.0 | 0.0 | 0.00 | 0.00 | 0.00 | 74 | 1013.4 |
| 20260503225724 | 58 | 266 | 0.0 | 0.0 | 0.00 | 0.00 | 0.00 | 74 | 1014.5 |
| 20260503225236 | 58 | 266 | 0.0 | 0.0 | 0.00 | 0.00 | 0.00 | 74 | 1014.4 |
| 20260503224718 | 58 | 266 | 0.0 | 0.0 | 0.00 | 0.00 | 0.00 | 74 | 1014.4 |
| 20260503224304 | 58 | 266 | 0.0 | 0.0 | 0.00 | 0.00 | 0.00 | 74 | 1014.4 |
| 20260503223722 | 59 | 266 | 0.0 | 0.0 | 0.00 | 0.00 | 0.00 | 74 | 1014.4 |
| 20260503223226 | 59 | 266 | 0.0 | 0.0 | 0.00 | 0.00 | 0.00 | 74 | 1014.4 |
| 20260503222727 | 59 | 266 | 0.0 | 0.0 | 0.00 | 0.00 | 0.00 | 74 | 1014.4 |
| 20260503222244 | 59 | 266 | 0.0 | 0.0 | 0.00 | 0.00 | 0.00 | 74 | 1014.4 |
| 20260503221732 | 59 | 266 | 0.0 | 0.0 | 0.00 | 0.00 | 0.00 | 74 | 1014.4 |
| 20260503221259 | 59 | 266 | 0.0 | 0.0 | 0.00 | 0.00 | 0.00 | 74 | 1014.3 |
| 20260503220735 | 59 | 266 | 0.0 | 0.0 | 0.00 | 0.00 | 0.00 | 73 | 1014.5 |
| 20260503220224 | 59 | 265 | 0.0 | 0.0 | 0.00 | 0.00 | 0.00 | 73 | 1014.4 |
| 20260503215717 | 59 | 266 | 0.0 | 0.0 | 0.00 | 0.00 | 0.02 | 73 | 1014.3 |
| 20260503215229 | 60 | 266 | 0.0 | 0.0 | 0.00 | 0.00 | 0.02 | 73 | 1014.3 |
| 20260503214732 | 60 | 266 | 0.0 | 0.0 | 0.00 | 0.00 | 0.02 | 73 | 1014.2 |
| 20260503214230 | 60 | 266 | 0.0 | 0.0 | 0.00 | 0.00 | 0.02 | 73 | 1014.3 |
| 20260503213759 | 60 | 266 | 0.0 | 0.0 | 0.00 | 0.00 | 0.02 | 75 | 1014.4 |
| 20260503213220 | 60 | 266 | 0.0 | 0.0 | 0.00 | 0.00 | 0.02 | 75 | 1014.3 |
| 20260503212749 | 60 | 266 | 0.0 | 0.0 | 0.00 | 0.00 | 0.02 | 74 | 1014.3 |
| 20260503212234 | 61 | 266 | 0.0 | 0.0 | 0.00 | 0.00 | 0.02 | 75 | 1014.2 |
| 20260503211802 | 61 | 266 | 0.0 | 0.0 | 0.00 | 0.00 | 0.02 | 74 | 1014.1 |
| 20260503211228 | 61 | 266 | 0.0 | 0.0 | 0.00 | 0.00 | 0.02 | 74 | 1014.0 |
| 20260503210803 | 61 | 266 | 0.0 | 0.0 | 0.00 | 0.00 | 0.02 | 74 | 1014.0 |
| 20260503210225 | 61 | 266 | 0.0 | 0.0 | 0.00 | 0.00 | 0.02 | 73 | 1013.8 |
| 20260503205725 | 61 | 266 | 0.0 | 0.0 | 0.00 | 0.00 | 0.02 | 73 | 1013.8 |
| 20260503205221 | 61 | 266 | 0.0 | 0.0 | 0.00 | 0.00 | 0.02 | 73 | 1013.8 |
| 20260503204725 | 61 | 266 | 0.0 | 0.0 | 0.00 | 0.00 | 0.02 | 73 | 1013.7 |
| 20260503204244 | 61 | 266 | 0.0 | 0.0 | 0.00 | 0.00 | 0.02 | 73 | 1013.6 |
| 20260503203733 | 61 | 266 | 0.0 | 0.0 | 0.00 | 0.00 | 0.02 | 73 | 1013.5 |
| 20260503203243 | 61 | 266 | 0.0 | 0.0 | 0.00 | 0.00 | 0.02 | 72 | 1013.5 |
| 20260503202716 | 61 | 266 | 0.0 | 0.0 | 0.00 | 0.00 | 0.02 | 73 | 1013.3 |
| 20260503202228 | 61 | 266 | 0.0 | 0.0 | 0.00 | 0.00 | 0.02 | 72 | 1013.3 |
| 20260503201740 | 62 | 266 | 0.0 | 0.0 | 0.00 | 0.00 | 0.02 | 73 | 1013.3 |
| 20260503201227 | 62 | 266 | 0.0 | 0.0 | 0.00 | 0.00 | 0.02 | 73 | 1013.2 |
| 20260503200723 | 62 | 266 | 0.0 | 0.0 | 0.00 | 0.00 | 0.02 | 73 | 1013.1 |
| 20260503200221 | 62 | 266 | 0.0 | 0.0 | 0.00 | 0.00 | 0.02 | 73 | 1012.9 |
| 20260503195723 | 62 | 266 | 0.0 | 0.0 | 0.00 | 0.00 | 0.02 | 72 | 1012.9 |
| 20260503195216 | 63 | 266 | 0.0 | 0.0 | 0.01 | 0.00 | 0.02 | 73 | 1012.9 |
| 20260503194741 | 63 | 266 | 0.0 | 0.0 | 0.01 | 0.00 | 0.02 | 74 | 1012.9 |
| 20260503194243 | 63 | 266 | 0.0 | 0.0 | 0.01 | 0.00 | 0.02 | 73 | 1012.8 |
| 20260503193743 | 63 | 266 | 0.0 | 0.0 | 0.01 | 0.00 | 0.02 | 72 | 1012.8 |
| 20260503193223 | 63 | 266 | 0.0 | 0.0 | 0.01 | 0.00 | 0.02 | 73 | 1012.8 |
| 20260503192755 | 63 | 266 | 0.0 | 0.0 | 0.01 | 0.00 | 0.02 | 72 | 1012.7 |
| 20260503192225 | 63 | 264 | 0.0 | 0.0 | 0.01 | 0.00 | 0.02 | 73 | 1012.6 |
| 20260503191800 | 63 | 264 | 0.0 | 0.0 | 0.01 | 0.00 | 0.02 | 73 | 1012.7 |
| 20260503191245 | 64 | 264 | 0.0 | 0.0 | 0.01 | 0.00 | 0.02 | 72 | 1012.6 |
| 20260503190742 | 64 | 264 | 0.0 | 0.0 | 0.01 | 0.00 | 0.02 | 72 | 1012.7 |
| 20260503190242 | 65 | 264 | 0.0 | 0.0 | 0.01 | 0.00 | 0.02 | 71 | 1012.6 |
| 20260503185719 | 65 | 264 | 0.0 | 0.0 | 0.01 | 0.00 | 0.02 | 69 | 1012.6 |
| 20260503185240 | 66 | 264 | 0.0 | 0.0 | 0.01 | 0.00 | 0.02 | 66 | 1012.5 |
| 20260503184721 | 66 | 267 | 0.0 | 0.9 | 0.00 | 0.00 | 0.02 | 62 | 1012.5 |
| 20260503184220 | 66 | 269 | 0.0 | 0.9 | 0.00 | 0.00 | 0.02 | 61 | 1012.3 |
| 20260503183728 | 66 | 257 | 0.0 | 0.0 | 0.00 | 0.00 | 0.02 | 60 | 1012.4 |
| 20260503183220 | 66 | 257 | 0.0 | 0.0 | 0.00 | 0.00 | 0.02 | 60 | 1012.3 |
| 20260503182723 | 66 | 263 | 0.0 | 1.7 | 0.00 | 0.00 | 0.02 | 60 | 1012.5 |
| 20260503182232 | 67 | 259 | 0.0 | 1.7 | 0.00 | 0.00 | 0.02 | 59 | 1012.4 |
| 20260503181736 | 67 | 251 | 0.0 | 3.5 | 0.00 | 0.00 | 0.02 | 59 | 1012.4 |
| 20260503181226 | 67 | 267 | 0.9 | 4.3 | 0.00 | 0.00 | 0.02 | 58 | 1012.3 |
| 20260503180731 | 67 | 256 | 0.9 | 4.3 | 0.00 | 0.00 | 0.02 | 58 | 1012.3 |
| 20260503180220 | 67 | 240 | 0.9 | 4.3 | 0.00 | 0.00 | 0.02 | 58 | 1012.2 |
| 20260503175737 | 68 | 265 | 0.9 | 3.5 | 0.00 | 0.00 | 0.02 | 57 | 1012.2 |
| 20260503175223 | 68 | 259 | 0.9 | 4.3 | 0.00 | 0.00 | 0.02 | 57 | 1012.3 |
| 20260503174719 | 68 | 257 | 0.0 | 5.2 | 0.00 | 0.00 | 0.02 | 54 | 1012.2 |
| 20260503174223 | 68 | 269 | 1.7 | 5.2 | 0.00 | 0.00 | 0.02 | 55 | 1012.3 |
| 20260503173726 | 67 | 260 | 0.9 | 6.1 | 0.00 | 0.00 | 0.02 | 55 | 1012.3 |
| 20260503173221 | 67 | 263 | 1.7 | 6.1 | 0.00 | 0.00 | 0.02 | 54 | 1012.3 |
| 20260503172724 | 68 | 248 | 0.9 | 6.1 | 0.00 | 0.00 | 0.02 | 53 | 1012.3 |
| 20260503172236 | 68 | 236 | 2.6 | 6.1 | 0.00 | 0.00 | 0.02 | 52 | 1012.3 |
| 20260503171728 | 69 | 251 | 1.7 | 5.2 | 0.00 | 0.00 | 0.02 | 51 | 1012.3 |
| 20260503171232 | 69 | 268 | 1.7 | 8.7 | 0.00 | 0.00 | 0.02 | 51 | 1012.2 |
| 20260503170737 | 70 | 257 | 2.6 | 8.7 | 0.00 | 0.00 | 0.02 | 50 | 1012.2 |
| 20260503170257 | 70 | 239 | 1.7 | 12.2 | 0.00 | 0.00 | 0.02 | 49 | 1012.1 |
| 20260503150717 | 68 | 222 | 4.3 | 9.6 | 0.00 | 0.00 | 0.02 | 60 | 1012.5 |
| 20260503150222 | 68 | 243 | 4.3 | 7.8 | 0.00 | 0.00 | 0.02 | 60 | 1012.6 |
| 20260503140225 | 71 | 232 | 3.5 | 10.4 | 0.00 | 0.00 | 0.02 | 54 | 1013.1 |
| 20260503131219 | 68 | 191 | 0.9 | 7.0 | 0.00 | 0.00 | 0.02 | 57 | 1013.4 |
| 20260503130744 | 68 | 265 | 0.9 | 7.0 | 0.00 | 0.00 | 0.02 | 58 | 1013.5 |
| 20260503130225 | 68 | 267 | 0.9 | 6.1 | 0.00 | 0.00 | 0.02 | 58 | 1013.5 |
| 20260503110718 | 67 | 292 | 3.5 | 9.6 | 0.00 | 0.00 | 0.02 | 59 | 1014.6 |
| 20260503110223 | 67 | 221 | 5.2 | 10.4 | 0.00 | 0.00 | 0.02 | 61 | 1014.7 |
| 20260503100227 | 65 | 246 | 3.5 | 7.0 | 0.00 | 0.00 | 0.02 | 72 | 1015.1 |
| 20260503090224 | 62 | 237 | 1.7 | 7.8 | 0.00 | 0.00 | 0.02 | 79 | 1015.1 |
| 20260503081236 | 61 | 259 | 0.9 | 5.2 | 0.00 | 0.00 | 0.02 | 85 | 1015.1 |
| 20260503080740 | 60 | 255 | 2.6 | 5.2 | 0.00 | 0.00 | 0.02 | 86 | 1015.0 |
| 20260503080239 | 60 | 257 | 2.6 | 4.3 | 0.00 | 0.00 | 0.02 | 86 | 1015.1 |